KC1HBM Weather Reports


Display with metric or nautical units.
time (UTC)temp
F
wind
direction
speed
MPH
gust
MPH
rain 1hr
in
rain 24hr
in
rain mn
in
humidity
%
barometer
mb
20260906022744 63 301 0.0 1.0 0.00 0.01 0.01 81 1010.8
20260906022239 63 310 1.0 1.0 0.00 0.01 0.01 80 1010.9
20260906021736 62 296 0.0 1.0 0.00 0.01 0.01 81 1010.9
20260906021234 62 299 0.0 1.0 0.00 0.01 0.01 82 1010.6
20260906020729 62 311 0.0 0.0 0.00 0.01 0.01 82 1010.7
20260906020223 62 311 1.0 1.0 0.00 0.01 0.01 82 1010.7
20260906015718 62 309 0.0 0.0 0.00 0.01 0.01 83 1010.5
20260906015216 62 310 0.0 0.0 0.00 0.01 0.01 83 1010.7
20260906014711 62 298 0.0 0.0 0.00 0.01 0.01 83 1010.7
20260906014207 62 311 0.0 0.0 0.00 0.01 0.01 83 1010.6
20260906013703 62 310 0.0 0.0 0.00 0.01 0.01 83 1010.8
20260906013158 61 311 0.0 0.0 0.00 0.01 0.01 82 1010.9
20260906012657 62 313 0.0 0.0 0.00 0.01 0.01 82 1010.7
20260906012152 62 313 0.0 0.0 0.00 0.01 0.01 81 1010.8
20260906011648 62 314 0.0 0.0 0.00 0.01 0.01 81 1010.6
20260906011142 63 313 0.0 0.0 0.00 0.01 0.01 81 1010.8
20260906010637 63 312 0.0 0.0 0.00 0.01 0.01 82 1010.7
20260906010134 64 311 0.0 0.0 0.00 0.01 0.01 81 1010.7
20260906005633 64 314 0.0 0.0 0.00 0.01 0.01 80 1010.6
20260906005127 64 313 0.0 0.0 0.00 0.01 0.01 80 1010.7
20260906004626 64 312 0.0 0.0 0.00 0.01 0.01 79 1010.6
20260906004121 64 312 0.0 0.0 0.00 0.01 0.01 78 1010.5
20260906003616 64 311 0.0 1.0 0.00 0.01 0.01 77 1010.4
20260906003113 64 310 0.0 0.0 0.00 0.01 0.01 77 1010.2
20260906002613 64 307 0.0 0.0 0.00 0.01 0.01 78 1010.4
20260906002108 65 307 1.0 1.0 0.00 0.01 0.01 79 1010.5
20260906001603 65 307 1.0 1.0 0.00 0.01 0.01 77 1010.4
20260906001103 64 302 2.0 2.0 0.00 0.01 0.01 77 1010.3
20260906000559 64 309 0.0 0.0 0.00 0.01 0.01 78 1010.5
20260906000054 64 310 0.0 0.0 0.00 0.01 0.01 81 1010.3
20260905235553 63 309 0.0 0.0 0.00 0.01 0.01 83 1010.2
20260905235048 64 307 1.0 1.0 0.00 0.01 0.01 90 1010.2
20260905234543 64 309 0.0 0.0 0.00 0.01 0.01 86 1010.2
20260905234038 63 311 0.0 0.0 0.00 0.01 0.01 86 1010.2
20260905233533 64 309 0.0 0.0 0.00 0.01 0.01 89 1010.0
20260905233033 64 309 0.0 0.0 0.00 0.01 0.01 88 1010.1
20260905232528 64 309 0.0 0.0 0.00 0.01 0.01 81 1010.1
20260905232024 64 312 0.0 0.0 0.00 0.01 0.01 85 1009.8
20260905231519 64 310 0.0 0.0 0.00 0.01 0.01 85 1009.8
20260905231015 64 313 0.0 0.0 0.00 0.01 0.01 83 1009.9
20260905230514 65 314 0.0 0.0 0.00 0.01 0.01 82 1009.8
20260905230013 65 312 0.0 0.0 0.00 0.01 0.01 81 1009.7
20260905225508 66 314 0.0 0.0 0.00 0.01 0.01 79 1009.8
20260905225003 66 314 0.0 0.0 0.00 0.01 0.01 77 1009.7
20260905224458 66 316 0.0 0.0 0.00 0.01 0.01 75 1009.7
20260905223957 67 311 0.0 0.0 0.00 0.01 0.01 75 1009.9
20260905223455 67 311 0.0 0.0 0.00 0.01 0.01 74 1009.4
20260905222950 67 307 0.0 0.0 0.00 0.01 0.01 72 1009.5
20260905222450 68 310 0.0 0.0 0.00 0.01 0.01 70 1009.5
20260905221945 68 307 0.0 0.0 0.00 0.01 0.01 70 1009.4
20260905221442 68 308 0.0 0.0 0.00 0.01 0.01 69 1009.5
20260905220938 68 311 0.0 1.0 0.00 0.01 0.01 70 1009.1
20260905220433 68 307 1.0 1.0 0.00 0.01 0.01 73 1009.4
20260905215932 68 308 0.0 0.0 0.00 0.01 0.01 74 1009.1
20260905215428 68 308 0.0 0.0 0.00 0.01 0.01 73 1009.2
20260905214924 69 307 0.0 0.0 0.00 0.01 0.01 74 1009.1
20260905214420 69 304 0.0 0.0 0.00 0.01 0.01 74 1009.2
20260905213914 69 307 0.0 0.0 0.00 0.01 0.01 74 1009.2
20260905213410 69 307 1.0 1.0 0.00 0.01 0.01 73 1009.0
20260905212905 70 307 0.0 0.0 0.00 0.01 0.01 71 1009.0
20260905212400 70 318 1.0 2.0 0.00 0.01 0.01 70 1008.9
20260905211854 70 307 1.0 2.0 0.00 0.01 0.01 70 1008.8
20260905211349 69 304 1.0 1.0 0.00 0.01 0.01 71 1008.9
20260905210846 69 307 0.0 0.0 0.00 0.01 0.01 73 1008.9
20260905210345 69 305 2.0 2.0 0.00 0.01 0.01 70 1008.6
20260905205844 69 303 1.0 2.0 0.00 0.01 0.01 70 1008.7
20260905205339 70 305 0.0 1.0 0.00 0.01 0.01 71 1008.7
20260905204838 70 303 0.0 0.0 0.00 0.01 0.01 72 1008.7
20260905204335 70 307 0.0 0.0 0.00 0.01 0.01 70 1008.7
20260905203833 71 305 1.0 1.0 0.00 0.01 0.01 69 1008.6
20260905203330 71 302 1.0 2.0 0.00 0.01 0.01 69 1008.5
20260905202825 71 309 1.0 1.0 0.00 0.01 0.01 67 1008.6
20260905202320 70 307 0.0 1.0 0.00 0.01 0.01 70 1008.4
20260905201815 70 309 0.0 1.0 0.00 0.01 0.01 69 1008.7
20260905201310 70 303 0.0 0.0 0.00 0.01 0.01 71 1008.1
20260905200805 70 286 1.0 1.0 0.00 0.01 0.01 70 1008.4
20260905200301 70 306 1.0 2.0 0.00 0.01 0.01 71 1008.4
20260905195759 70 301 2.0 2.0 0.00 0.01 0.01 73 1008.3
20260905195254 70 304 1.0 1.0 0.00 0.01 0.01 74 1008.3
20260905194749 70 299 2.0 2.0 0.00 0.01 0.01 72 1008.4
20260905194249 71 301 2.0 3.0 0.00 0.01 0.01 69 1008.4
20260905193743 71 310 0.0 1.0 0.00 0.01 0.01 69 1008.4
20260905193238 71 305 1.0 2.0 0.00 0.01 0.01 71 1008.2
20260905192733 71 296 1.0 2.0 0.00 0.01 0.01 68 1008.4
20260905192230 71 307 1.0 2.0 0.00 0.01 0.01 69 1008.3
20260905191729 71 305 1.0 1.0 0.00 0.01 0.01 69 1008.4
20260905191227 70 305 1.0 2.0 0.00 0.01 0.01 70 1008.3
20260905190726 70 316 0.0 0.0 0.00 0.01 0.01 70 1008.3
20260905190225 70 320 0.0 1.0 0.00 0.01 0.01 71 1008.4
20260905185724 70 309 1.0 1.0 0.00 0.01 0.01 70 1008.3
20260905185219 70 312 1.0 1.0 0.00 0.01 0.01 72 1008.3
20260905184719 71 300 1.0 1.0 0.00 0.01 0.01 72 1008.3
20260905184218 71 305 2.0 2.0 0.00 0.01 0.01 73 1008.3
20260905183712 71 310 0.0 0.0 0.00 0.01 0.01 70 1008.3
20260905183208 70 305 1.0 1.0 0.00 0.01 0.01 73 1008.3
20260905182707 70 308 1.0 1.0 0.00 0.01 0.01 72 1008.1
20260905182207 70 307 0.0 0.0 0.00 0.01 0.01 75 1008.0
20260905181702 70 293 3.0 3.0 0.00 0.01 0.01 73 1008.3
20260905181201 70 314 3.0 3.0 0.00 0.01 0.01 71 1008.3
20260905180655 69 306 1.0 1.0 0.00 0.01 0.01 72 1008.6
20260905180151 69 306 2.0 3.0 0.00 0.01 0.01 72 1008.4
20260905175650 70 295 3.0 3.0 0.00 0.01 0.01 74 1008.4
20260905175146 70 14 2.0 3.0 0.00 0.01 0.01 71 1008.2
20260905174641 69 312 2.0 3.0 0.00 0.01 0.01 73 1008.2
20260905174137 69 305 0.0 0.0 0.00 0.01 0.01 73 1008.3
20260905173632 70 287 3.0 3.0 0.00 0.01 0.01 74 1008.3
20260905173128 70 307 1.0 1.0 0.00 0.01 0.01 77 1008.3
20260905172627 69 305 2.0 2.0 0.00 0.01 0.01 78 1008.3
20260905172122 70 306 1.0 1.0 0.00 0.01 0.01 81 1008.3
20260905171618 69 310 0.0 0.0 0.00 0.01 0.01 85 1008.4
20260905171114 69 311 0.0 0.0 0.00 0.01 0.01 87 1008.4
20260905170610 68 303 2.0 3.0 0.00 0.01 0.01 84 1008.4
20260905170105 69 317 1.0 2.0 0.00 0.01 0.01 84 1008.3
20260905165600 69 309 1.0 1.0 0.00 0.01 0.01 86 1008.3
20260905165055 69 311 0.0 0.0 0.00 0.01 0.01 86 1008.4
20260905164549 68 307 0.0 0.0 0.00 0.01 0.01 88 1008.4
20260905164044 67 309 2.0 2.0 0.00 0.01 0.01 89 1008.5
20260905163540 66 312 0.0 0.0 0.00 0.01 0.01 94 1008.6
20260905163036 66 311 0.0 1.0 0.00 0.01 0.01 97 1008.7
20260905162532 65 311 0.0 0.0 0.00 0.01 0.01 97 1008.7
20260905162027 64 311 0.0 0.0 0.00 0.01 0.01 97 1008.9
20260905161526 64 311 0.0 0.0 0.00 0.01 0.01 97 1008.7
20260905161024 64 311 0.0 0.0 0.07 0.01 0.01 96 1008.8
20260905160518 64 313 1.0 1.0 0.07 0.01 0.01 94 1008.8
20260905160018 66 302 1.0 1.0 0.00 0.00 0.00 92 1008.8
20260905155518 68 315 1.0 2.0 0.00 0.00 0.00 84 1008.8
20260905155016 68 308 0.0 1.0 0.00 0.00 0.00 82 1008.4
20260905154511 68 310 1.0 1.0 0.00 0.00 0.00 82 1008.3
20260905154007 69 310 0.0 0.0 0.00 0.00 0.00 81 1008.3
20260905153503 69 311 1.0 1.0 0.00 0.00 0.00 80 1008.3
20260905153003 70 309 0.0 0.0 0.00 0.00 0.00 78 1008.3
20260905152502 70 306 1.0 1.0 0.00 0.00 0.00 79 1008.4
20260905151957 69 306 0.0 0.0 0.00 0.00 0.00 84 1008.4
20260905151452 69 310 0.0 0.0 0.00 0.00 0.00 83 1008.4
20260905150947 69 310 0.0 0.0 0.00 0.00 0.00 82 1008.3
20260905150442 68 312 0.0 1.0 0.00 0.00 0.00 83 1008.4
20260905145938 68 300 1.0 2.0 0.00 0.00 0.00 83 1008.5
20260905145433 68 308 0.0 1.0 0.00 0.00 0.00 82 1008.5
20260905144933 68 309 0.0 0.0 0.00 0.00 0.00 83 1008.4
20260905144428 68 287 2.0 3.0 0.00 0.00 0.00 82 1008.6
20260905143927 68 289 3.0 3.0 0.00 0.00 0.00 82 1008.3
20260905143420 68 309 1.0 1.0 0.00 0.00 0.00 82 1008.1
20260905142915 68 306 1.0 2.0 0.00 0.00 0.00 83 1008.3
20260905142414 68 305 1.0 1.0 0.00 0.00 0.00 82 1008.2
20260905141910 69 311 3.0 6.0 0.00 0.00 0.00 79 1008.1
20260905141405 69 305 1.0 1.0 0.00 0.00 0.00 80 1008.3
20260905140901 70 302 2.0 2.0 0.00 0.00 0.00 77 1008.0
20260905140355 69 293 2.0 2.0 0.00 0.00 0.00 80 1007.8
20260905135854 69 331 1.0 2.0 0.00 0.00 0.00 79 1007.9
20260905135350 67 329 0.0 1.0 0.00 0.00 0.00 82 1008.0
20260905134846 67 314 0.0 0.0 0.00 0.00 0.00 84 1007.7
20260905134344 67 353 1.0 1.0 0.00 0.00 0.00 84 1007.7
20260905133839 67 341 1.0 1.0 0.00 0.00 0.00 84 1007.8
20260905133334 68 308 1.0 1.0 0.00 0.00 0.00 83 1007.7
20260905132833 68 316 1.0 1.0 0.00 0.00 0.00 84 1007.6
20260905132329 68 297 2.0 2.0 0.00 0.00 0.00 82 1007.5
20260905131829 68 279 0.0 1.0 0.00 0.00 0.00 82 1007.5
20260905131324 68 312 0.0 1.0 0.00 0.00 0.00 83 1007.5
20260905130820 68 305 1.0 2.0 0.00 0.00 0.00 83 1007.4
20260905130318 67 310 0.0 0.0 0.00 0.00 0.00 83 1007.5
20260905125814 66 310 0.0 0.0 0.00 0.00 0.00 83 1007.6
20260905125308 66 294 2.0 2.0 0.00 0.00 0.00 85 1007.4
20260905124805 65 319 2.0 2.0 0.00 0.00 0.00 86 1007.3
20260905124301 65 296 1.0 1.0 0.00 0.00 0.00 86 1007.2
20260905123755 65 308 1.0 1.0 0.00 0.00 0.00 87 1007.3
20260905123252 65 314 0.0 0.0 0.00 0.00 0.00 87 1007.2
20260905122747 65 308 0.0 0.0 0.00 0.00 0.00 87 1007.3
20260905122245 65 310 0.0 1.0 0.00 0.00 0.00 88 1007.2
20260905121741 64 310 0.0 0.0 0.00 0.00 0.00 88 1007.3
20260905121238 64 304 0.0 0.0 0.00 0.00 0.00 89 1007.3
20260905120736 64 314 0.0 1.0 0.00 0.00 0.00 89 1007.5
20260905120231 64 312 0.0 0.0 0.00 0.00 0.00 89 1007.1
20260905115726 64 311 0.0 0.0 0.00 0.00 0.00 89 1007.2
20260905115226 64 312 0.0 1.0 0.00 0.00 0.00 90 1007.3
20260905114720 64 312 0.0 1.0 0.00 0.00 0.00 90 1007.3
20260905114219 64 312 0.0 0.0 0.00 0.00 0.00 90 1007.4
20260905113719 64 310 0.0 0.0 0.00 0.00 0.00 90 1007.1
20260905113215 63 314 0.0 0.0 0.00 0.00 0.00 91 1007.2
20260905112715 63 311 0.0 0.0 0.00 0.00 0.00 91 1006.8
20260905112210 63 311 0.0 0.0 0.00 0.00 0.00 92 1007.0
20260905111710 63 311 0.0 0.0 0.00 0.00 0.00 92 1007.2
20260905111209 62 315 0.0 0.0 0.00 0.00 0.00 92 1006.9
20260905110709 62 311 0.0 0.0 0.00 0.00 0.00 93 1006.7
20260905110203 62 311 0.0 0.0 0.00 0.00 0.00 93 1006.8
20260905105659 62 311 0.0 0.0 0.00 0.00 0.00 93 1006.7
20260905105157 62 311 0.0 0.0 0.00 0.00 0.00 93 1006.8
20260905104653 62 311 0.0 0.0 0.00 0.00 0.00 93 1006.9
20260905104149 62 315 0.0 0.0 0.00 0.00 0.00 93 1006.6
20260905103644 62 311 0.0 0.0 0.00 0.00 0.00 94 1006.6
20260905103139 62 315 0.0 0.0 0.00 0.00 0.00 94 1006.6
20260905102635 61 311 0.0 0.0 0.00 0.00 0.00 95 1006.5
20260905102131 61 308 0.0 0.0 0.00 0.00 0.00 95 1006.5
20260905101630 61 311 0.0 0.0 0.00 0.00 0.00 96 1006.5
20260905101128 61 311 0.0 0.0 0.00 0.00 0.00 96 1006.4
20260905100625 61 316 0.0 0.0 0.00 0.00 0.00 96 1006.4
20260905100120 61 311 0.0 0.0 0.00 0.00 0.00 96 1006.4
20260905095619 61 313 0.0 0.0 0.00 0.00 0.00 96 1006.5
20260905095114 61 311 0.0 0.0 0.00 0.00 0.00 96 1006.4
20260905094610 61 311 0.0 0.0 0.00 0.00 0.00 96 1006.3
20260905094108 61 314 0.0 0.0 0.00 0.00 0.00 95 1006.3
20260905093603 61 314 0.0 0.0 0.00 0.00 0.00 95 1006.1
20260905093100 62 315 0.0 0.0 0.00 0.00 0.00 95 1006.2
20260905092559 62 311 0.0 0.0 0.00 0.00 0.00 95 1006.1
20260905092055 62 312 0.0 0.0 0.00 0.00 0.00 95 1006.0
20260905091554 62 311 0.0 0.0 0.00 0.00 0.00 95 1006.2
20260905091049 61 311 0.0 0.0 0.00 0.00 0.00 96 1006.0
20260905090548 61 311 0.0 0.0 0.00 0.00 0.00 96 1005.9
20260905090044 61 311 0.0 0.0 0.00 0.00 0.00 96 1006.0
20260905085542 61 314 0.0 0.0 0.00 0.00 0.00 96 1006.0
20260905085038 61 317 0.0 0.0 0.00 0.00 0.00 96 1005.8
20260905084538 61 311 0.0 0.0 0.00 0.00 0.00 97 1005.9
20260905084033 61 311 0.0 0.0 0.00 0.00 0.00 97 1005.9
20260905083528 62 310 0.0 0.0 0.00 0.00 0.00 97 1005.7
20260905083025 62 314 0.0 0.0 0.00 0.00 0.00 96 1005.6
20260905082520 62 311 0.0 0.0 0.00 0.00 0.00 96 1005.8
20260905082016 62 311 0.0 0.0 0.00 0.00 0.00 96 1005.6
20260905081514 62 311 0.0 0.0 0.00 0.00 0.00 96 1005.9
20260905081015 62 314 0.0 0.0 0.00 0.00 0.00 96 1005.5
20260905080509 62 316 0.0 0.0 0.00 0.00 0.00 96 1005.9
20260905080004 62 318 1.0 1.0 0.00 0.00 0.00 96 1005.4
20260905075457 62 311 0.0 0.0 0.00 0.00 0.00 95 1005.4
20260905074956 62 311 0.0 0.0 0.00 0.00 0.00 94 1005.5
20260905074452 62 315 0.0 0.0 0.00 0.00 0.00 93 1005.3
20260905073948 62 315 0.0 0.0 0.00 0.00 0.00 93 1005.4
20260905073442 62 314 0.0 0.0 0.00 0.00 0.00 93 1005.6
20260905072938 62 315 0.0 0.0 0.00 0.00 0.00 93 1005.5
20260905072432 62 315 0.0 0.0 0.00 0.00 0.00 93 1005.6
20260905071928 62 314 0.0 0.0 0.00 0.00 0.00 93 1005.5
20260905071420 62 316 0.0 0.0 0.00 0.00 0.00 93 1005.3
20260905070918 62 311 0.0 0.0 0.00 0.00 0.00 93 1005.5
20260905070415 63 311 0.0 0.0 0.00 0.00 0.00 93 1005.7
20260905065909 63 311 0.0 0.0 0.00 0.00 0.00 92 1005.8
20260905065407 63 311 0.0 0.0 0.00 0.00 0.00 92 1005.8
20260905064903 63 313 0.0 0.0 0.00 0.00 0.00 92 1005.7
20260905064358 63 310 0.0 0.0 0.00 0.00 0.00 92 1005.7
20260905063857 63 314 0.0 0.0 0.00 0.00 0.00 92 1005.6
20260905063352 63 311 0.0 0.0 0.00 0.00 0.00 92 1005.8
20260905062849 63 311 0.0 0.0 0.00 0.00 0.00 92 1005.7
20260905062348 63 305 0.0 0.0 0.00 0.00 0.00 92 1005.5
20260905061843 63 314 0.0 0.0 0.00 0.00 0.00 92 1005.5
20260905061338 63 314 0.0 0.0 0.00 0.00 0.00 91 1005.4
20260905060832 63 310 0.0 0.0 0.00 0.00 0.00 91 1005.6
20260905060329 63 315 0.0 0.0 0.00 0.00 0.00 91 1005.6
20260905055828 64 314 0.0 0.0 0.00 0.00 0.00 91 1005.7
20260905055323 64 314 0.0 0.0 0.00 0.00 0.00 91 1005.6
20260905054822 64 310 0.0 0.0 0.00 0.00 0.00 91 1005.9
20260905054319 64 311 0.0 1.0 0.00 0.00 0.00 91 1005.6
20260905053818 64 311 0.0 0.0 0.00 0.00 0.00 91 1005.7
20260905053314 64 314 0.0 0.0 0.00 0.00 0.00 91 1005.5
20260905052813 64 314 0.0 0.0 0.00 0.00 0.00 90 1005.8
20260905052308 64 311 0.0 0.0 0.00 0.00 0.00 90 1005.5
20260905051808 64 314 0.0 0.0 0.00 0.00 0.00 90 1005.7
20260905051304 64 311 0.0 0.0 0.00 0.00 0.00 89 1005.8
20260905050801 64 310 0.0 0.0 0.00 0.00 0.00 89 1005.7
20260905050257 64 310 0.0 0.0 0.00 0.00 0.00 89 1005.9
20260905045751 64 310 0.0 0.0 0.00 0.00 0.00 89 1005.6
20260905045247 64 313 0.0 0.0 0.00 0.00 0.00 89 1005.6
20260905044741 64 311 0.0 0.0 0.00 0.00 0.00 90 1005.9
20260905044231 64 310 0.0 0.0 0.00 0.00 0.00 89 1005.9
20260905043730 64 310 0.0 0.0 0.00 0.00 0.00 89 1005.8
20260905043230 64 311 0.0 0.0 0.00 0.00 0.00 89 1005.8
20260905042725 64 314 0.0 0.0 0.00 0.00 0.00 89 1005.6
20260905042224 64 311 0.0 0.0 0.00 0.00 0.00 88 1005.8
20260905041720 65 311 0.0 0.0 0.00 0.00 0.00 88 1005.7
20260905041215 65 313 0.0 0.0 0.00 0.00 0.00 88 1006.0
20260905040710 65 311 0.0 0.0 0.00 0.00 0.00 87 1006.0
20260905040208 66 310 0.0 0.0 0.00 0.00 0.00 86 1006.0
20260905035703 66 311 0.0 0.0 0.00 0.00 0.00 86 1006.0
20260905035200 66 311 0.0 0.0 0.00 0.00 0.00 85 1005.9
20260905034656 66 314 0.0 0.0 0.00 0.00 0.00 85 1005.8
20260905034155 66 315 0.0 0.0 0.00 0.00 0.00 86 1005.9
20260905033654 66 315 0.0 0.0 0.00 0.00 0.00 86 1005.8
20260905033150 66 314 0.0 0.0 0.00 0.00 0.00 87 1005.8
20260905032650 66 313 0.0 0.0 0.00 0.00 0.00 89 1005.7
20260905032150 67 311 0.0 0.0 0.00 0.00 0.00 90 1006.0
20260905031646 67 310 0.0 0.0 0.00 0.00 0.00 88 1005.8
20260905031141 67 311 0.0 0.0 0.00 0.00 0.00 84 1005.9
20260905030636 67 311 0.0 0.0 0.00 0.00 0.00 83 1005.8
20260905030131 68 311 0.0 0.0 0.00 0.00 0.00 83 1005.9
20260905025626 68 310 0.0 0.0 0.00 0.00 0.00 82 1006.1
20260905025122 68 311 0.0 0.0 0.00 0.00 0.00 82 1005.8
20260905024618 68 314 0.0 0.0 0.00 0.00 0.00 81 1005.9
20260905024113 68 312 0.0 0.0 0.00 0.00 0.00 81 1005.8
20260905023608 68 311 0.0 0.0 0.00 0.00 0.00 81 1005.9
20260905023102 69 311 0.0 0.0 0.00 0.00 0.00 80 1006.1